EW9826 Weather Reports


time (UTC)temp
F
wind
direction
speed
knots
gust
knots
rain 1hr
in
rain 24hr
in
rain mn
in
humidity
%
barometer
mb
20260902164055 69 261 3.5 10.4 0.00 0.05 0.05 74 1019.0
20260902163554 69 219 2.6 7.0 0.00 0.05 0.05 73 1019.0
20260902163055 69 219 3.5 6.1 0.00 0.05 0.05 73 1019.0
20260902162555 69 265 2.6 8.7 0.00 0.05 0.05 72 1019.0
20260902162055 69 258 2.6 7.0 0.00 0.05 0.05 71 1019.1
20260902161555 69 231 2.6 8.7 0.00 0.05 0.05 70 1019.1
20260902161056 69 200 5.2 10.4 0.00 0.05 0.05 69 1019.3
20260902154555 69 229 4.3 8.7 0.00 0.05 0.05 70 1019.4
20260902154055 69 247 3.5 7.0 0.00 0.05 0.05 70 1019.5
20260902153555 69 234 3.5 8.7 0.00 0.05 0.05 70 1019.5
20260902153056 69 233 2.6 7.0 0.00 0.05 0.05 72 1019.5
20260902152555 69 202 4.3 8.7 0.00 0.05 0.05 73 1019.5
20260902152056 69 275 3.5 7.0 0.00 0.05 0.05 73 1019.5
20260902140054 71 226 5.2 11.3 0.00 0.05 0.05 65 1019.8
20260902135555 71 201 3.5 10.4 0.00 0.05 0.05 65 1019.7
20260902135055 71 243 7.0 11.3 0.00 0.05 0.05 64 1019.8
20260902134554 72 236 7.8 13.9 0.00 0.05 0.05 65 1019.8
20260902134056 71 244 3.5 10.4 0.00 0.05 0.05 67 1019.7
20260902133555 71 245 6.1 11.3 0.00 0.05 0.05 68 1019.8
20260902132055 70 263 7.0 10.4 0.00 0.05 0.05 71 1019.9
20260902131555 70 263 4.3 7.8 0.00 0.05 0.05 72 1019.9
20260902131055 69 244 2.6 7.8 0.00 0.05 0.05 74 1019.9
20260902125056 69 236 4.3 7.0 0.00 0.05 0.05 73 1019.9
20260902124056 69 267 2.6 8.7 0.00 0.05 0.05 73 1019.8
20260902123555 69 254 2.6 7.0 0.00 0.05 0.05 73 1019.9
20260902123055 69 288 4.3 7.8 0.00 0.05 0.05 72 1019.9
20260902122554 69 253 2.6 7.8 0.00 0.05 0.05 72 1019.9
20260902121055 69 281 4.3 10.4 0.00 0.05 0.05 72 1019.9
20260902115554 69 281 4.3 12.2 0.00 0.05 0.05 71 1019.9
20260902112554 68 287 4.3 10.4 0.00 0.05 0.05 81 1019.9
20260902112056 68 249 4.3 7.8 0.00 0.05 0.05 81 1020.0
20260902110054 66 232 2.6 4.3 0.05 0.05 0.05 88 1020.1
20260902105554 66 232 1.7 4.3 0.05 0.05 0.05 88 1020.0
20260902105055 66 232 2.6 6.1 0.05 0.05 0.05 88 1020.0
20260902104554 66 232 2.6 5.2 0.05 0.05 0.05 88 1020.1
20260902104054 66 227 1.7 2.6 0.05 0.05 0.05 88 1020.2
20260902103554 65 227 1.7 4.3 0.05 0.05 0.05 87 1020.1
20260902103056 66 227 1.7 4.3 0.05 0.05 0.05 87 1020.2
20260902100054 68 227 5.2 11.3 0.00 0.00 0.00 80 1020.0
20260902095554 69 255 4.3 7.8 0.00 0.00 0.00 80 1019.9
20260902095055 69 259 2.6 6.1 0.00 0.00 0.00 81 1019.9
20260902091055 68 242 6.1 10.4 0.00 0.00 0.00 82 1019.9
20260902084553 67 245 5.2 8.7 0.00 0.00 0.00 84 1019.9
20260902084054 67 262 4.3 7.8 0.00 0.00 0.00 85 1019.9
20260902075054 65 215 2.6 7.0 0.00 0.00 0.00 87 1019.4
20260902074554 65 229 2.6 6.1 0.00 0.00 0.00 88 1019.4
20260902074055 65 242 3.5 6.1 0.00 0.00 0.00 88 1019.4
20260902073555 65 225 4.3 7.8 0.00 0.00 0.00 88 1019.4
20260902073054 64 203 3.5 7.0 0.00 0.00 0.00 88 1019.4
20260902072554 64 233 4.3 7.8 0.00 0.00 0.00 89 1019.3
20260902072054 64 236 4.3 8.7 0.00 0.00 0.00 88 1019.2
20260902071554 64 241 3.5 7.8 0.00 0.00 0.00 88 1019.2
20260902071055 64 235 3.5 8.7 0.00 0.00 0.00 87 1019.1
20260902070054 64 223 2.6 7.0 0.00 0.00 0.00 88 1019.1
20260902065554 64 229 3.5 7.8 0.00 0.00 0.00 88 1019.0
20260902062554 62 209 4.3 7.8 0.00 0.00 0.00 91 1019.0
20260902062054 61 205 3.5 7.8 0.00 0.00 0.00 91 1018.9
20260902061554 61 212 3.5 8.7 0.00 0.00 0.00 91 1018.9
20260902061056 61 210 2.6 6.1 0.00 0.00 0.00 91 1018.9
20260902052054 61 209 2.6 7.8 0.00 0.00 0.00 90 1018.9
20260902050053 61 200 4.3 6.1 0.00 0.00 0.00 90 1018.7
20260902045554 61 201 2.6 6.1 0.00 0.00 0.00 90 1018.7
20260902042054 61 200 2.6 5.2 0.00 0.00 0.00 89 1018.7
20260902041554 61 198 2.6 6.1 0.00 0.00 0.00 89 1018.8
20260902041055 61 193 2.6 7.8 0.00 0.00 0.00 89 1018.7
20260902035054 62 205 1.7 4.3 0.00 0.00 0.00 88 1018.7
20260902034554 62 205 1.7 5.2 0.00 0.00 0.00 88 1018.8
20260902034055 62 205 2.6 6.1 0.00 0.00 0.00 88 1018.9
20260902033053 62 202 2.6 6.1 0.00 0.00 0.00 88 1018.9
20260902032554 62 202 4.3 6.1 0.00 0.00 0.00 88 1018.9
20260902031553 62 201 1.7 6.1 0.00 0.00 0.00 87 1018.9
20260902031054 62 200 2.6 6.1 0.00 0.00 0.00 87 1018.9
20260902024054 62 201 1.7 6.1 0.00 0.00 0.00 86 1019.1
20260902022554 62 218 0.9 2.6 0.00 0.00 0.00 86 1019.2
20260902022054 62 219 2.6 7.0 0.00 0.00 0.00 86 1019.3
20260902013553 62 217 2.6 5.2 0.00 0.00 0.00 85 1019.3
20260902012054 62 219 1.7 5.2 0.00 0.00 0.00 86 1019.4
20260902011553 62 219 2.6 5.2 0.00 0.00 0.00 86 1019.4
20260902004553 61 227 2.6 5.2 0.00 0.00 0.00 85 1019.5
20260902004054 61 229 1.7 4.3 0.00 0.00 0.00 85 1019.4
20260902003554 61 231 2.6 4.3 0.00 0.00 0.00 85 1019.5
20260902003054 61 232 1.7 2.6 0.00 0.00 0.00 85 1019.5
20260902002553 61 232 1.7 4.3 0.00 0.00 0.00 85 1019.5
20260902002054 61 233 2.6 4.3 0.00 0.00 0.00 85 1019.5
20260902001553 61 233 2.6 4.3 0.00 0.00 0.00 85 1019.5
20260902001054 61 234 0.9 4.3 0.00 0.00 0.00 84 1019.5
20260902000054 61 234 0.9 2.6 0.00 0.00 0.00 84 1019.7
20260901235553 61 234 0.9 2.6 0.00 0.00 0.00 84 1019.7
20260901235054 61 234 1.7 5.2 0.00 0.00 0.00 84 1019.7
20260901231553 61 242 0.9 2.6 0.00 0.00 0.00 82 1019.9
20260901231054 61 242 0.9 2.6 0.00 0.00 0.00 82 1019.9
20260901224054 61 248 0.0 2.6 0.00 0.00 0.00 83 1020.1
20260901223553 61 248 1.7 2.6 0.00 0.00 0.00 83 1020.1
20260901223053 61 248 0.0 0.0 0.00 0.00 0.00 82 1020.1
20260901222553 61 248 0.0 0.0 0.00 0.00 0.00 82 1020.1
20260901222054 61 248 0.0 0.9 0.00 0.00 0.00 82 1020.0
20260901221553 61 248 0.0 1.7 0.00 0.00 0.00 83 1019.9
20260901221053 61 248 0.9 2.6 0.00 0.00 0.00 83 1020.0
20260901213055 61 248 0.0 0.0 0.00 0.03 0.00 82 1020.0
20260901212553 62 248 0.0 0.0 0.00 0.06 0.00 81 1020.0
20260901205054 62 248 0.0 0.0 0.00 0.14 0.00 80 1020.5
20260901204553 62 248 0.0 0.0 0.00 0.14 0.00 80 1020.6
20260901204053 62 248 0.0 0.0 0.00 0.14 0.00 80 1020.6
20260901203553 62 248 0.0 0.0 0.00 0.14 0.00 80 1020.7
20260901203053 62 248 0.0 0.0 0.00 0.14 0.00 80 1020.6
20260901202553 62 248 0.0 0.0 0.00 0.14 0.00 80 1020.7
20260901195054 63 248 0.0 0.0 0.00 0.14 0.00 78 1020.5
20260901194553 63 248 0.0 0.0 0.00 0.14 0.00 77 1020.5
20260901193553 63 248 0.0 1.7 0.00 0.14 0.00 77 1020.5
20260901190053 64 248 0.0 0.0 0.00 0.14 0.00 74 1020.0
20260901183553 65 248 0.0 1.7 0.00 0.14 0.00 72 1020.0
20260901183054 65 248 0.9 2.6 0.00 0.14 0.00 72 1020.0
20260901181053 66 300 0.9 4.3 0.00 0.14 0.00 70 1020.0
20260901173553 68 269 3.5 5.2 0.00 0.14 0.00 67 1020.3